Wind_Speed
31 29 28 27 26 25 24 24 23 23 22 22 22 22 22 22 23 23 23 24 25 25 26 27 28 29 30 31 31 32 32 33 33 34 34 34 34 34 33 32 32 30 29
32 31 29 28 28 26 26 25 25 25 25 24 24 24 24 24 25 25 25 26 27 28 29 30 30 31 32 32 33 34 34 35 35 35 36 36 35 34 34 33 32 31 30
34 33 31 30 29 28 27 27 27 27 26 26 26 26 26 26 27 27 28 29 29 30 31 32 32 33 34 34 35 36 36 37 37 37 37 36 36 35 34 33 33 32 31
36 34 33 32 30 29 29 29 29 28 28 28 28 28 28 28 29 30 30 31 32 32 33 34 34 35 36 36 37 37 38 38 39 38 37 37 37 36 35 34 33 32 32
38 36 34 33 32 31 31 31 30 29 29 29 29 29 30 30 31 32 33 33 34 34 35 35 36 37 37 38 39 39 39 40 39 39 38 38 38 37 36 35 34 33 32
39 37 35 34 33 33 32 32 31 31 31 31 31 31 31 32 32 33 34 35 36 36 37 37 38 39 39 40 40 40 40 40 40 40 40 39 38 38 37 36 36 34 33
40 37 37 36 35 34 34 33 33 33 32 32 32 33 33 33 34 35 36 36 37 38 38 39 40 40 40 40 41 41 41 41 41 41 41 41 40 39 38 37 36 35 34
40 38 37 37 37 37 36 35 35 34 34 34 33 33 33 34 35 36 36 37 38 39 40 40 41 41 41 41 42 42 43 43 43 43 43 42 41 40 39 38 37 36 35
41 40 40 40 39 37 36 36 36 35 35 35 34 33 34 35 35 36 37 38 39 40 40 41 41 42 42 43 44 44 44 45 45 44 43 43 42 41 40 38 37 37 36
43 41 40 40 39 37 36 36 36 36 36 34 34 34 35 35 36 36 36 37 39 40 41 42 42 43 44 45 46 45 45 45 45 45 44 43 42 41 40 38 38 37 36
43 42 41 40 39 37 36 36 36 34 33 33 34 34 35 36 36 37 37 39 41 42 44 44 44 45 46 47 47 47 47 46 46 45 44 43 42 41 40 39 38 37 36
41 40 40 40 39 38 37 37 36 34 33 34 35 36 37 38 39 40 40 42 43 43 45 45 46 47 47 47 47 47 47 47 46 45 45 44 42 41 40 39 38 37 36
40 41 41 40 39 37 37 36 36 35 34 35 37 38 39 40 40 41 42 43 44 45 46 46 47 47 48 47 47 47 47 47 46 45 44 43 42 41 40 39 38 37 36
36 37 37 37 37 37 36 36 35 35 36 37 38 39 40 41 42 43 44 45 46 46 46 47 47 48 48 48 48 48 47 47 46 45 44 43 42 42 41 39 38 37 36
35 36 36 36 37 38 38 37 37 38 39 40 41 42 43 44 45 45 46 47 47 47 46 47 48 48 49 48 48 47 46 46 46 45 44 43 42 41 40 38 37 36 35
34 35 36 37 37 38 39 40 41 41 42 43 44 44 45 46 46 47 47 47 47 47 47 47 48 48 48 47 47 46 45 45 44 44 43 42 41 39 38 36 36 35 34
36 36 37 37 38 40 41 42 42 44 44 44 45 45 46 46 46 47 47 47 47 48 47 47 47 47 46 46 45 44 44 43 42 42 41 40 38 37 36 35 34 33 32
38 40 41 41 41 42 43 43 44 45 46 46 47 46 46 46 47 47 47 47 47 46 46 45 45 45 45 44 44 43 43 42 41 40 39 38 37 35 34 33 32 31 31
42 43 44 44 44 44 45 45 45 45 45 46 46 46 46 46 46 46 46 45 45 45 45 44 44 43 43 43 43 42 41 41 40 38 37 36 35 34 32 32 31 30 30
44 45 45 46 45 45 45 45 46 46 45 45 45 45 45 45 45 44 44 44 44 44 43 43 43 42 42 42 41 41 40 39 38 37 36 34 33 31 30 29 29 29 28
46 47 47 47 47 47 47 46 46 46 45 45 45 44 44 44 43 43 43 43 43 42 42 42 42 41 41 40 39 38 38 37 36 35 33 32 31 30 29 28 28 27 27
48 48 48 48 48 48 47 47 46 46 45 44 44 44 43 43 43 43 42 42 42 41 41 41 41 40 39 38 37 36 35 34 33 32 31 30 29 28 28 27 26 25 25
49 49 49 48 48 47 47 46 46 46 45 44 44 44 43 43 42 42 42 42 41 41 40 40 39 38 37 36 35 34 33 32 31 30 29 28 27 27 27 26 25 25 25
50 49 49 49 48 47 47 47 46 46 45 45 45 44 43 42 42 42 41 41 41 40 39 38 38 36 35 35 34 33 32 31 30 29 28 27 26 26 26 25 25 25 25
50 50 49 49 48 48 48 47 47 46 46 45 45 44 44 43 42 41 41 41 40 39 38 37 36 35 34 33 32 31 30 30 29 27 27 26 25 25 25 25 25 25 24
50 50 50 49 49 48 48 47 47 46 46 46 45 44 44 43 42 41 41 40 39 38 37 35 34 33 32 32 31 30 29 28 27 26 26 25 24 24 24 24 24 24 24
Wind_Direction
230 232 234 237 239 241 243 245 248 250 252 255 258 260 262 265 268 271 274 277 280 283 286 289 291 293 295 297 298 300 302 304 306 309 310 311 311 311 311 311 309 309 308
230 231 234 237 239 241 243 245 247 250 252 255 258 261 264 267 270 273 276 278 281 283 286 288 290 292 294 295 297 299 301 303 304 306 308 308 308 309 309 308 307 306 305
229 232 234 236 239 241 243 245 248 250 253 256 259 262 265 268 271 274 277 279 281 284 286 287 290 292 294 295 297 298 299 301 302 304 305 306 306 306 306 305 304 303 302
229 232 235 237 239 242 244 247 250 253 256 258 261 264 267 270 273 275 278 280 282 284 286 288 290 292 293 295 297 298 299 300 301 302 302 303 303 303 303 302 301 300 300
229 232 235 237 240 244 246 249 251 253 257 260 263 266 269 271 274 277 279 281 283 285 287 289 290 292 293 294 295 296 298 298 299 299 300 301 301 301 301 300 299 297 297
230 232 235 239 243 246 248 249 252 256 259 261 264 266 269 273 276 278 280 282 284 286 288 289 291 293 294 294 295 296 296 297 297 297 298 298 299 299 299 297 296 295 295
232 234 238 241 244 246 249 251 255 258 260 263 266 268 270 274 277 279 281 282 284 286 288 290 292 293 293 294 295 295 295 295 295 295 295 296 296 296 296 295 294 293 292
233 236 240 243 245 247 250 253 255 258 262 264 267 270 273 276 278 281 283 284 285 287 289 291 292 291 292 293 294 295 295 294 294 294 294 295 294 294 293 292 291 290 290
235 238 240 244 246 249 252 254 256 259 262 264 266 270 274 277 280 282 284 285 286 288 291 292 292 291 292 293 294 294 294 293 293 293 293 293 292 291 290 289 288 288 287
237 238 240 244 247 249 252 254 256 260 263 263 267 272 276 278 280 281 283 285 287 289 290 291 291 291 292 293 293 293 293 293 293 292 292 292 291 289 288 287 287 286 284
239 240 242 245 247 249 252 255 257 260 263 267 271 275 277 278 281 282 284 286 287 288 290 290 291 291 292 292 292 292 291 291 290 290 290 289 288 287 286 285 285 283 282
243 244 246 248 250 252 254 257 259 262 266 270 273 276 278 280 282 284 285 287 288 290 290 291 291 291 291 291 291 291 290 290 289 289 289 287 285 284 283 282 282 281 279
248 250 251 252 252 255 257 258 261 265 269 272 274 277 279 282 283 285 286 287 289 290 290 291 291 291 291 290 291 290 290 289 289 288 287 285 284 283 281 280 280 278 277
251 252 254 253 253 255 258 261 263 267 271 274 276 278 280 282 284 285 286 288 289 290 290 290 290 290 290 290 290 290 289 289 288 287 286 284 283 282 280 279 277 275 274
254 255 256 258 257 259 261 262 266 270 273 276 277 279 281 283 284 285 287 288 289 289 289 289 289 289 289 290 290 290 289 288 287 287 285 284 283 281 279 276 275 273 271
256 257 258 258 259 260 262 266 270 273 275 276 277 278 280 282 284 286 287 288 288 289 289 288 289 289 289 290 290 289 289 288 287 286 285 284 283 280 277 275 274 272 269
260 259 260 261 262 263 266 269 271 272 273 275 276 279 281 282 283 285 286 287 287 288 288 288 288 288 289 289 289 289 289 288 287 286 285 284 282 280 277 274 272 269 267
262 262 262 264 264 265 267 269 270 272 272 274 276 277 279 281 282 284 285 285 286 286 287 287 288 288 288 289 289 288 288 287 287 285 284 282 280 278 275 273 270 267 265
264 264 265 266 266 267 268 269 269 271 272 273 275 277 278 279 280 282 283 284 285 285 286 287 287 288 288 289 288 288 287 286 285 284 283 280 279 276 274 271 268 265 263
264 265 266 266 267 267 268 269 270 271 272 273 275 276 277 278 279 280 281 283 284 285 286 287 288 288 288 288 288 287 286 285 284 282 281 279 277 274 272 270 267 264 262
266 266 267 267 267 268 269 269 270 270 271 272 273 275 276 277 279 280 281 283 284 285 286 287 288 288 288 288 287 286 285 284 282 280 279 276 274 272 270 268 265 262 259
265 266 267 267 267 267 267 268 269 270 271 271 272 273 274 276 278 279 281 282 284 285 286 286 287 287 287 287 286 286 285 283 281 279 277 274 272 270 268 266 263 260 258
266 266 266 266 266 266 266 267 268 268 269 270 271 272 274 276 277 279 281 282 284 285 285 285 286 286 285 285 285 284 283 282 280 278 275 273 272 270 267 265 262 260 257
265 265 265 266 265 265 265 266 267 267 268 269 270 272 273 274 276 278 280 282 283 283 284 284 284 284 283 283 283 282 281 280 278 276 273 272 271 269 266 264 263 261 259
265 264 264 264 264 264 264 264 265 266 267 268 269 270 272 273 275 277 279 280 281 281 282 282 281 281 281 281 281 280 279 278 276 274 272 271 270 268 266 264 262 261 259
265 264 263 263 263 263 263 264 264 265 266 267 268 269 271 272 274 276 278 279 279 279 279 279 279 278 278 279 278 277 277 276 274 272 270 269 267 266 265 264 263 261 259
Height
5833 5835 5837 5838 5840 5841 5842 5843 5844 5845 5846 5846 5847 5847 5847 5847 5847 5847 5846 5846 5845 5844 5842 5841 5839 5838 5836 5834 5832 5830 5827 5825 5822 5819 5816 5813 5810 5807 5804 5801 5798 5795 5793
5827 5830 5832 5833 5835 5836 5837 5838 5839 5840 5841 5841 5842 5842 5842 5842 5842 5842 5841 5840 5840 5839 5837 5836 5834 5832 5830 5828 5826 5824 5821 5819 5816 5814 5811 5808 5804 5802 5799 5795 5793 5790 5787
5821 5824 5826 5828 5829 5831 5832 5833 5834 5835 5835 5836 5836 5837 5836 5836 5836 5836 5835 5834 5834 5833 5831 5830 5828 5826 5824 5822 5820 5817 5815 5813 5810 5807 5804 5801 5798 5795 5793 5790 5787 5784 5782
5815 5818 5820 5822 5824 5825 5826 5827 5828 5829 5830 5830 5831 5831 5831 5831 5830 5830 5829 5828 5827 5826 5825 5823 5822 5820 5818 5816 5813 5811 5808 5806 5803 5800 5797 5795 5792 5789 5786 5783 5781 5778 5775
5808 5811 5813 5816 5817 5819 5820 5821 5822 5823 5824 5825 5825 5825 5825 5824 5824 5823 5822 5821 5820 5819 5818 5816 5814 5813 5810 5808 5806 5804 5801 5798 5796 5793 5790 5788 5785 5782 5779 5776 5774 5771 5769
5802 5804 5807 5809 5811 5813 5814 5815 5816 5817 5818 5818 5819 5818 5818 5818 5817 5816 5815 5814 5813 5812 5810 5809 5807 5805 5803 5801 5798 5796 5793 5791 5788 5785 5783 5780 5777 5774 5772 5769 5767 5764 5762
5795 5798 5800 5803 5804 5806 5807 5808 5810 5811 5811 5812 5812 5812 5811 5811 5810 5809 5808 5807 5805 5804 5802 5801 5799 5797 5795 5793 5791 5788 5785 5783 5780 5777 5775 5772 5769 5766 5764 5761 5759 5757 5754
5788 5791 5793 5796 5797 5799 5800 5801 5802 5803 5804 5804 5805 5804 5804 5804 5803 5801 5800 5798 5797 5796 5794 5792 5791 5789 5787 5785 5782 5780 5777 5774 5772 5769 5766 5763 5761 5758 5755 5753 5751 5749 5746
5780 5783 5785 5788 5790 5791 5793 5794 5795 5795 5796 5796 5797 5797 5797 5796 5795 5794 5792 5790 5789 5788 5786 5784 5782 5780 5778 5776 5773 5771 5768 5765 5762 5760 5757 5754 5751 5749 5747 5744 5742 5740 5738
5773 5775 5778 5780 5782 5784 5785 5786 5787 5788 5788 5788 5789 5789 5789 5788 5787 5787 5785 5783 5781 5779 5778 5775 5773 5771 5769 5766 5764 5761 5759 5756 5753 5750 5748 5745 5742 5740 5737 5735 5733 5731 5730
5765 5767 5770 5772 5774 5775 5777 5778 5779 5779 5780 5780 5780 5780 5780 5779 5778 5778 5777 5775 5773 5771 5769 5766 5764 5762 5759 5756 5754 5751 5749 5746 5743 5740 5738 5735 5732 5730 5728 5726 5724 5722 5721
5756 5759 5761 5764 5765 5767 5768 5769 5770 5771 5771 5772 5772 5772 5771 5770 5770 5769 5768 5766 5764 5762 5759 5756 5754 5751 5749 5746 5743 5740 5738 5735 5732 5730 5727 5724 5722 5720 5718 5716 5714 5713 5711
5748 5751 5753 5755 5757 5758 5759 5760 5761 5762 5762 5763 5763 5763 5762 5761 5760 5759 5757 5756 5754 5752 5749 5746 5743 5740 5738 5735 5732 5729 5727 5724 5721 5718 5716 5713 5711 5709 5707 5706 5704 5703 5702
5740 5742 5744 5746 5748 5749 5750 5751 5752 5752 5753 5753 5753 5753 5752 5751 5750 5748 5747 5745 5744 5742 5739 5736 5732 5729 5726 5724 5721 5718 5715 5712 5710 5707 5705 5703 5700 5698 5697 5695 5694 5693 5692
5731 5733 5735 5737 5738 5740 5741 5742 5742 5743 5743 5743 5743 5742 5742 5741 5740 5738 5736 5734 5733 5731 5729 5725 5721 5718 5715 5712 5709 5706 5703 5701 5698 5695 5693 5691 5689 5687 5686 5685 5684 5683 5682
5722 5724 5726 5727 5728 5729 5730 5731 5732 5732 5733 5733 5732 5731 5731 5730 5728 5727 5725 5723 5721 5719 5717 5714 5710 5707 5703 5700 5697 5694 5692 5689 5686 5684 5682 5680 5678 5677 5675 5674 5673 5673 5672
5713 5715 5716 5717 5719 5719 5720 5720 5721 5721 5722 5721 5721 5720 5719 5718 5717 5715 5713 5711 5709 5707 5705 5703 5699 5696 5692 5689 5686 5683 5680 5678 5675 5673 5671 5669 5667 5666 5665 5664 5663 5663 5663
5703 5705 5706 5707 5708 5708 5709 5709 5709 5709 5709 5709 5709 5708 5707 5706 5705 5703 5701 5699 5697 5694 5692 5690 5687 5684 5681 5678 5675 5672 5669 5667 5664 5662 5660 5658 5657 5656 5655 5654 5654 5654 5654
5692 5694 5695 5696 5696 5697 5697 5697 5697 5697 5697 5697 5696 5695 5695 5694 5692 5691 5689 5687 5685 5683 5680 5678 5676 5672 5670 5667 5664 5661 5658 5656 5654 5652 5650 5648 5647 5646 5645 5645 5645 5645 5645
5681 5682 5682 5683 5684 5684 5685 5685 5685 5684 5684 5684 5683 5683 5682 5681 5680 5679 5677 5675 5673 5671 5669 5666 5664 5661 5658 5655 5653 5650 5648 5646 5644 5642 5640 5639 5638 5637 5636 5636 5636 5636 5637
5668 5669 5670 5670 5671 5671 5672 5672 5672 5672 5671 5671 5671 5671 5670 5669 5668 5667 5665 5663 5661 5659 5657 5655 5652 5650 5647 5644 5642 5640 5637 5635 5633 5632 5630 5629 5628 5628 5628 5628 5628 5628 5629
5655 5656 5656 5657 5658 5658 5658 5659 5659 5659 5659 5659 5658 5658 5658 5657 5656 5655 5653 5651 5650 5648 5646 5643 5641 5639 5636 5634 5632 5629 5628 5626 5624 5623 5622 5621 5620 5619 5619 5619 5620 5620 5621
5641 5642 5643 5643 5644 5645 5645 5645 5645 5646 5646 5646 5646 5645 5645 5644 5644 5643 5641 5640 5638 5636 5634 5632 5630 5628 5626 5624 5622 5620 5618 5617 5615 5614 5613 5612 5612 5612 5612 5612 5612 5613 5614
5627 5627 5628 5629 5630 5630 5631 5631 5632 5632 5632 5633 5633 5633 5632 5632 5631 5630 5629 5628 5626 5624 5623 5621 5619 5617 5615 5614 5612 5611 5609 5608 5606 5605 5605 5605 5604 5604 5604 5604 5605 5605 5607
5612 5612 5613 5614 5615 5616 5617 5617 5618 5618 5619 5619 5619 5620 5620 5620 5619 5618 5617 5616 5614 5613 5611 5610 5608 5607 5606 5604 5603 5602 5600 5599 5598 5597 5597 5597 5596 5597 5597 5597 5598 5598 5599
5595 5596 5598 5599 5600 5601 5602 5603 5603 5604 5605 5606 5606 5606 5606 5607 5606 5605 5605 5604 5603 5602 5601 5599 5598 5597 5596 5595 5594 5593 5592 5591 5590 5590 5589 5589 5589 5589 5590 5590 5591 5591 5592